616  
ASUS42 KMHX 171925  
RWRMHX  
WEATHER ROUNDUP FOR EASTERN NORTH CAROLINA  
NATIONAL WEATHER SERVICE NEWPORT/MOREHEAD CITY NC  
200 PM EST SUN FEB 17 2019  
 
NOTE: "FAIR" INDICATES FEW OR NO CLOUDS BELOW 12,000 FEET  
WITH NO SIGNIFICANT WEATHER AND/OR S TO VISIBILITY
 
 
NCZ015>017-031-032-045>047-102-103-172000-  
NORTH COAST  
 
CITY SKY/WX TMP DP RH WIND PRES REMARKS
 
EDENTON CLOUDY 48 42 79 N9 30.14R  
ELIZABETH CITY CLOUDY 48 37 65 N10 30.11S  
KITTY HAWK CLOUDY 45 39 80 N7 30.08R  
MANTEO CLOUDY 47 39 76 NE13 30.09S  
 

 
 
NCZ045>047-081-094-103-104-172000-  
CENTRAL COAST  
 
CITY SKY/WX TMP DP RH WIND PRES REMARKS
 
FRISCO CLOUDY 57 44 62 VRB7 30.05S  
 

 
 
NCZ095-097-098-100-101-172000-  
SOUTHERN COAST  
 
CITY SKY/WX TMP DP RH WIND PRES REMARKS
 
BEAUFORT CLOUDY 52 47 83 NE9 30.04S  
CEDAR ISLAND NOT AVBL  
JACKSONVILLE CLOUDY 51 41 68 N7 30.05S  
PINEY ISLAND CLOUDY 49 42 77 N9 30.05F  
WILMINGTON CLOUDY 51 43 74 VRB3 30.04F  
 

 
 
NCZ011>013-027>030-043-044-078>080-089-090>093-098-172000-  
COASTAL PLAIN  
 
CITY SKY/WX TMP DP RH WIND PRES REMARKS
 
AHOSKIE NOT AVBL  
CLINTON CLOUDY 42 40 93 NE7 30.08S  
ELIZABETHTOWN CLOUDY 42 39 89 N7 30.07S FOG  
GOLDSBORO CLOUDY 41 37 87 NE7 N/A FOG  
GREENVILLE LGT RAIN 41 39 93 N8 30.11F  
HAVELOCK CLOUDY 51 43 74 NE6 30.06F  
KENANSVILLE CLOUDY 41 39 93 N9 30.09S FOG  
KINSTON CLOUDY 43 39 87 N10 30.10R FOG  
NEW BERN CLOUDY 50 41 71 N9 30.07F  
RICHLANDS CLOUDY 47 41 80 N6 30.07S  
ROCKY MOUNT LGT RAIN 39 37 92 NE3 30.09F  
WASHINGTON CLOUDY 44 39 83 N13 30.11R  
WHITEVILLE CLOUDY 44 39 83 N3 30.06S  
 

 
 
AMZ130-135-150-152-154-156-158-170-250-252-270-ANZ085-086-088-633-658-670-172000-  
MARINE OBSERVATIONS  
 
STATION/POSITION TIME TEMP WIND PRES WAVE SWELL
 
AIR SEA DIR/SP/G HT/PER HT/PER  
(UTC) (F) (DEG/KT/KT) (MB) (FT/S) (FT/S)  
64 E VA BEACH 1850 49 54 360/ 10/ 12 1019.4 4/ 8 3/ 8  
DUCK 1900 44 45 30/ 15/ 17 1018.6  
2 E DUCK 1900 45 N/A 4/ 6  
10 NE DUCK 1845 46 N/A 5/ 6  
OREGON INLET 1854 47 46 350/ 9/ 12 1018.4  
13E OREGON INLT 1846 47 N/A 4/ 8 3/ 8  
HATTERAS CG 1900 49 56 10/ 15/ 17 1017.0  
DIAMOND BUOY NOT AVBL  
CAPE LOOKOUT 1900 30/ 12/ 13 1017.4  
BEAUFORT LAB 1900 51 54 20/ 7/ 9 1017.7  
30 SE NEW RVR IN 1908 55 63 80/ 12/ 14 1016.5  
30 SE NEW RVR IN 1900 63 N/A 4/ 8  
27 SE WRIGHTSVLE 1908 56 58 70/ 8/ 12 1016.5  
5 SE WRIGHTSVLE 1808 49 54 50/ 10/ 14 1017.0  
27 SE WRIGHTSVL 1908 56 58 70/ 8/ 12 1016.5  
FRYING PAN BUOY 1910 64 68 70/ 10/ 12 1016.2  
225 S CAPE HAT NOT AVBL  
41 SE CHARLESTON 1910 70 20/ 12/ 16 1015.7  
 

 
 
 
CLICK HERE TO GO TO PREVIOUS BULLETINS.

The Nexlab NC Page Main Text Page